www.pogodaiklimat.ru

Погода и климат >> Архив погоды >> Россия >> Якутия >> Бердигестях


ПОГОДА в Бердигестяхе

  • Прогноз погоды в Бердигестяхе
  • Монитор погоды в Бердигестяхе

АРХИВ ПОГОДЫ в Бердигестяхе

Время (UTC), дата Ветер
(напр.,м/с)
 
Видим.   Явления Облачность Т
(С)
Тd
(С)
f
(%)
Тe
(С)
Тes
(С)
Комфортность P
(гПа)
Po
(гПа)
Тmin
(С)
Tmax
(С)
R
(мм)
R24
(мм)
S
(см)
12 17.06 штиль 0 50 км ясно +21.6 +13.5 60 +24 +25 комфорт 1008.4 981.9 +28.2
15 17.06 штиль 0 50 км 3/0
[Ci fib]
+10.6 +7.3 80 +10 +10 1009.5 981.9
18 17.06 штиль 0 50 км ясно +7.0 +5.4 90 +6 +6 1009.8 981.8
21 17.06 штиль 0 50 км 3/0
[Ci fib]
+12.7 +7.1 69 +12 +15 1009.1 981.7
00 18.06 В 1 50 км ясно +23.7 +13.2 52 +26 +36 жарко 1007.9 981.6 +5.6
03 18.06 С 3 50 км ясно +26.9 +10.9 37 +28 +39 жарко 1007.2 981.1
06 18.06 С 3 50 км ясно +27.9 +9.9 32 +28 +37 жарко 1006.2 980.2
09 18.06 СЗ 2 50 км 3/0
[Ci fib]
+28.5 +10.3 32 +29 +32 жарко 1005.1 979.3
12 18.06 С 1 50 км ясно +22.5 +15.5 65 +26 +27 жарко 1006.0 979.6 +28.5
15 18.06 штиль 0 20 км ясно +11.7 +7.1 73 +11 +11 1007.7 980.2
18 18.06 штиль 0 50 км 3/3 600 м
[Sc]
+7.6 +5.6 87 +7 +7 1008.2 980.3
21 18.06 В 1 50 км 6/6 600 м
[Sc]
+13.8 +8.0 68 +14 +15 1007.5 980.2
00 19.06 В 1 50 км 6/6 600 м
[Cu med, cong]
+19.8 +12.7 64 +23 +26 комфорт 1007.3 980.6 +7.6
03 19.06 СВ 3 50 км 8/8 600 м
[Cu med, cong]
+25.4 +13.1 46 +27 +29 жарко 1006.0 979.8
06 19.06 С 2 50 км 4/4 600 м
[Cu med, cong]
+28.8 +12.0 35 +30 +36 жарко 1004.2 978.4
09 19.06 СВ 3 50 км 3/3 600 м
[Cu med, cong]
+28.6 +10.7 33 +29 +31 жарко 1004.1 978.3
12 19.06 СВ 2 50 км 3/3 600 м
[Sc diur, vesp]
+24.9 +9.9 39 +26 +26 жарко 1005.8 979.5 +28.8
15 19.06 В 1 50 км 3/3 1000 м
[Sc]
+17.6 +10.3 62 +19 +19 1007.0 980.1
18 19.06 штиль 0 50 км 4/4 600 м
[Sc]
+8.1 +7.9 99 +7 +7 1008.7 980.8
21 19.06 штиль 0 50 км 8/6 600 м
[Sc Cs]
+14.3 +8.8 69 +14 +15 1008.8 981.5
00 20.06 Ю 1 50 км 8/4 600 м
[Sc Ci fib]
+20.0 +13.6 67 +23 +28 комфорт 1008.3 981.7 +8.1
03 20.06 СЗ 2 50 км 8/0
[Cs]
+26.4 +10.9 38 +27 +39 жарко 1007.8 981.7
06 20.06 З 1 50 км 8/6 600 м
[Cu med, cong Cs]
+28.5 +8.5 28 +28 +33 жарко 1006.9 981.0
09 20.06 З 3 50 км 9/8 600 м
[Cu med, cong Cs]
+29.2 +8.0 26 +28 +29 жарко 1005.9 980.0
12 20.06 штиль 0 50 км 9/5 1000 м
[Sc Cs]
+23.3 +13.9 55 +27 +27 душно 1006.6 980.3 +29.5
15 20.06 штиль 0 20 км 8/0 2000 м
[Ac trans Cs]
+14.2 +10.6 79 +14 +14 1007.6 980.4
18 20.06 штиль 0 50 км 6/0
[Cs]
+10.7 +8.7 87 +10 +10 1008.1 980.5
21 20.06 штиль 0 50 км ясно +17.0 +10.7 66 +17 +20 1008.0 981.0
00 21.06 СЗ 3 50 км 3/0
[Ci fib]
+25.4 +15.5 54 +28 +35 жарко 1007.2 981.0 +10.1
03 21.06 СЗ 4 50 км 8/8 600 м
[Cu med, cong]
+28.5 +13.8 41 +30 +32 жарко 1006.2 980.3
06 21.06 СЗ 2 20 км гроза, ливневой дождь 8/8 600 м
[Cb cap]
+25.5 +13.4 47 +28 +30 жарко 1005.8 979.6
09 21.06 СЗ 2 50 км {гроза, ливн. осадки} 9/4 600 м
[Cb cap Cs]
+24.2 +12.8 49 +26 +28 жарко 1006.1 979.8
12 21.06 В 2 50 км гроза без осадков {ливн. осадки} 8/4 600 м
[Cb cap Ci ing]
+19.2 +16.2 83 +21 +22 комфорт 1008.4 981.7 +29.0 2
15 21.06 ЮЗ 2 50 км {гроза} 8/6 600 м
[Cb cap Ac cuf]
+15.4 +14.0 91 +15 +15 1009.1 982.0
18 21.06 В 1 50 км {гроза} 10/4 600 м
[Cb cap Ci ing]
+12.4 +11.6 95 +12 +12 1009.3 981.9
21 21.06 штиль 0 50 км 9/6 600 м
[Sc Ci ing]
+14.3 +13.4 94 +14 +15 1009.3 982.1
00 22.06 штиль 0 50 км 4/0
[Ci fib]
+19.8 +16.1 79 +22 +32 комфорт 1008.7 982.1 +11.7
03 22.06 В 1 50 км 6/6 600 м
[Cu med, cong]
+24.9 +14.1 51 +27 +34 жарко 1007.1 980.9
06 22.06 В 1 50 км 8/8 600 м
[Cb cap Ci fib]
+28.2 +14.5 43 +30 +33 жарко 1009.5 979.6
09 22.06 ЮЗ 2 50 км {гроза} 9/8 600 м
[Cb cap Ci fib]
+23.6 +14.7 57 +26 +27 жарко 1006.1 979.8
12 22.06 З 1 50 км {гроза} 8/6 600 м
[Cb cap Ci fib]
+22.1 +16.5 71 +26 +26 душно 1006.2 979.8 +28.5
15 22.06 штиль 0 20 км 6/6 1000 м
[Sc]
+14.9 +13.1 89 +15 +15 1006.3 979.2
18 22.06 штиль 0 50 км 8/8 1000 м
[Sc]
+15.1 +12.7 86 +15 +15 1006.2 979.2
21 22.06 ЮЗ 1 50 км 9/9 600 м
[Sc]
+15.9 +13.0 83 +17 +17 1006.3 979.3
00 23.06 З 1 50 км гроза, пыльная буря 9/9 600 м
[Cb cap]
+17.7 +14.7 83 +19 +20 1005.7 978.9 +14.9
03 23.06 ЮЗ 1 50 км {гроза} 9/9 600 м
[Cb cap]
+18.7 +16.0 84 +21 +22 комфорт 1005.2 978.6
06 23.06 Ю 1 20 км гроза, ливневой дождь 10/10 600 м
[Cb cap]
+17.0 +16.0 94 +18 +18 1005.6 978.8
09 23.06 З 1 50 км {гроза, ливн. осадки} 10/8 600 м
[St Ac As]
+16.8 +15.4 91 +18 +18 1005.5 978.7
12 23.06 З 2 50 км в посл. час дождь {гроза, ливн. осадки} 10/9 600 м
[St Ac As]
+14.3 +14.1 99 +14 +14 1006.2 979.1 +18.7 3
15 23.06 З 2 20 км слаб. дождь 10/0
[Ac As]
+12.2 +11.4 95 +11 +11 1006.5 979.2
18 23.06 З 2 50 км {дождь} 10/0
[Ac As]
+11.4 +10.8 96 +10 +10 1006.5 979.1
21 23.06 ЮЗ 1 50 км 10/0
[As trans]
+11.6 +10.8 95 +11 +12 1007.1 979.6
00 24.06 ЮЗ 1 20 км слаб. морось 10/8 600 м
[St Ac As]
+11.9 +11.7 99 +12 +12 1007.0 979.5 +11.4 0.4
03 24.06 ЮЗ 1 4000 м дождь {морось} 10/8 300 м
[St As op]
+12.2 +11.4 95 +12 +13 1007.0 979.6

 

Местоположение метеостанции Бердигестях (Якутия, Россия): широта 62.27 долгота 127.00 высота над уровнем моря 231 м.

В архиве по умолчанию представлена погода в Бердигестяхе за последнюю неделю. Архивные данные за месяц целиком и за предыдущие месяцы, начиная с января 2011 года, Вы можете получить, выбрав интересующий диапазон дат из раскрывающегося списка и нажав кнопку "Ввод!".


*Определитесь, кто Вы:
робот инопланетянин человек

Внимание! Время в таблицах - всемирное. Для получения местного времени необходимо прибавить поправку, которая равна 9 ч.

Смотрите также архив погоды в соседних городах и на ближайших метеорологических станциях:

Погода в Тонгулахе (Якутия, Россия) (136 км)
Погода в Якутске (Якутия, Россия) (138 км)
Погода в Покровске (Якутия, Россия) (141 км)
Погода в Намцах (Якутия, Россия) (143 км)
Погода в Батамае (Якутия, Россия) (185 км)
Погода в Исити (Якутия, Россия) (185 км)
Погода в Сангаре (Якутия, Россия) (188 км)
Погода в Хатырык-Хомо (Якутия, Россия) (217 км)
Погода в Сого-Хае (Якутия, Россия) (226 км)
Погода в Сеген-Кюеле (Якутия, Россия) (254 км)

Пояснения к столбцам:

Ветер - указаны скорость ветра в м/с - средняя за 10 мин, порывы в срок и между сроками (в фигурных скобках) и направление, откуда дует ветер: С - северный, СВ - северо-восточный, В - восточный, ЮВ - юго-восточный, Ю - южный, ЮЗ - юго-западный, З - западный, СЗ - северо-западный.
Видимость - горизонтальная дальность видимости в метрах или километрах. При видимости от 1 до 10 км при отсутствии осадков обычно наблюдается дымка, при ухудшении видимости до 1 км и менее - туман. В сухую погоду видимость может ухудшаться дымом, пылью или мглою.
Явления - указаны атмосферные явления, наблюдавшиеся в срок или в последний час перед сроком; фигурными скобками обозначены явления, наблюдавшиеся между сроками (за 1-3 часа до срока); квадратными скобками обозначены град или гололедные отложения с указанием их диаметра в мм.
Облачность - указаны через наклонную черту общая и нижняя облачность в баллах и высота нижней границы облаков в метрах; квадратными скобками обозначены формы облаков: Ci - перистые, Cs - перисто-слоистые, Cc - перисто-кучевые, Ac - высококучевые, As - высокослоистые, Sc - слоисто-кучевые, Ns - слоисто-дождевые, Cu - кучевые, Cb - кучево-дождевые. Подробнее классификацию облаков см. в Атласе облаков (PDF).
T - Температура воздуха - температура, измеренная на высоте 2 м над землей.
Td - Температура точки росы - температура, при понижении до которой содержащийся в воздухе водяной пар достигнет насыщения.
f - Относительная влажность воздуха - влажноcть воздуха, измеренная на высоте 2 м над землей.
Te - Эффективная температура - температура, которую ощущает одетый по сезону человек в тени. Характеристика душности погоды. При расчете учитывается влияние влажности воздуха и скорости ветра на теплоощущения человека.
Tes - Эффективная температура на солнце - температура, которую ощущает человек, с поправкой на солнечный нагрев. Характеристика знойности погоды. Зависит от высоты солнца над горизонтом, облачности и скорости ветра. Ночью, в пасмурную погоду, а также при ветре 12 м/с и более поправка равна нулю.
P - Атмосферное давление - приведенное к уровню моря атмосферное давление.
Po - Атмосферное давление - измеренное на уровне метеостанции атмосферное давление.
Tmin - Минимальная температура - минимум температуры воздуха на высоте 2 м над землей.
Tmax - Максимальная температура - максимум температуры воздуха на высоте 2 м над землей.
R - Количество осадков - Количество выпавших осадков за период времени, мм. При наведении курсора мыши на число - период времени, за который выпало указанное количество осадков.
R24 - Количество осадков - Количество выпавших осадков за 24 часа, мм.
S - Снежный покров - Высота снежного покрова, см. При наведении курсора мыши на число - состояние снежного покрова и степень покрытия местности в баллах.